This is the latest recevied weather packets stored in our database for station/object KM6YFK-13. If no packets are shown the sender has not sent any weather packets the latest 1 day(s).
| Time | Temp. | Humidity | Pressure | Rain* | Wind** | Luminosity | Snow |
|---|---|---|---|---|---|---|---|
| 1778004809 | 26.11° C | 47% | 1017.1 hPa | 0 mm | 0.89 m/s, 100° | 951 W/m² | - |
| 1778004510 | 26.11° C | 48% | 1017.2 hPa | 0 mm | 1.34 m/s, 87° | 972 W/m² | - |
| 1778004208 | 26.11° C | 50% | 1017.2 hPa | 0 mm | 0.89 m/s, 109° | 943 W/m² | - |
| 1778003907 | 26.11° C | 50% | 1017.2 hPa | 0 mm | 0.89 m/s, 113° | 962 W/m² | - |
| 1778003610 | 26.11° C | 51% | 1017.1 hPa | 0 mm | 0.89 m/s, 90° | 970 W/m² | - |
| 1778003308 | 26.11° C | 52% | 1017.2 hPa | 0 mm | 0.45 m/s, 118° | 981 W/m² | - |
| 1778003012 | 26.11° C | 51% | 1017.3 hPa | 0 mm | 0.89 m/s, 116° | 994 W/m² | - |
| 1778002714 | 25.56° C | 53% | 1017.3 hPa | 0 mm | 0.89 m/s, 111° | 1005 W/m² | - |
| 1778002411 | 26.11° C | 51% | 1017.3 hPa | 0 mm | 0.89 m/s, 103° | 1010 W/m² | - |
| 1778002110 | 26.11° C | 51% | 1017.4 hPa | 0 mm | 0.45 m/s, 152° | 1014 W/m² | - |
| 1778001808 | 26.11° C | 52% | 1017.4 hPa | 0 mm | 0.45 m/s, 134° | 1007 W/m² | - |
| 1778001510 | 26.11° C | 53% | 1017.4 hPa | 0 mm | 0.89 m/s, 110° | 1006 W/m² | - |
| 1778001208 | 26.11° C | 52% | 1017.4 hPa | 0 mm | 0.89 m/s, 114° | 1013 W/m² | - |
| 1778000910 | 25.56° C | 51% | 1017.4 hPa | 0 mm | 0.45 m/s, 104° | 1034 W/m² | - |
| 1778000607 | 25.56° C | 50% | 1017.4 hPa | 0 mm | 0.89 m/s, 99° | 1017 W/m² | - |
| 1778000310 | 25.56° C | 50% | 1017.5 hPa | 0 mm | 0.89 m/s, 156° | 993 W/m² | - |
| 1778000008 | 25.56° C | 51% | 1017.5 hPa | 0 mm | 0.45 m/s, 114° | 697 W/m² | - |
| 1777999708 | 25.56° C | 50% | 1017.7 hPa | 0 mm | 0.89 m/s, 100° | 888 W/m² | - |
| 1777999412 | 25.56° C | 53% | 1017.8 hPa | 0 mm | 0.45 m/s, 139° | 1016 W/m² | - |
| 1777999107 | 25.56° C | 48% | 1017.8 hPa | 0 mm | 0.89 m/s, 131° | 979 W/m² | - |
| 1777998808 | 25.56° C | 50% | 1017.7 hPa | 0 mm | 0.89 m/s, 103° | 804 W/m² | - |
| 1777998508 | 25.56° C | 52% | 1017.5 hPa | 0 mm | 0.89 m/s, 104° | 861 W/m² | - |
| 1777998207 | 25° C | 54% | 1017.6 hPa | 0 mm | 1.34 m/s, 128° | 765 W/m² | - |
| 1777997908 | 25.56° C | 53% | 1017.6 hPa | 0 mm | 0.89 m/s, 121° | 906 W/m² | - |
| 1777997610 | 25.56° C | 51% | 1017.6 hPa | 0 mm | 0.89 m/s, 109° | 930 W/m² | - |
* Rain latest hour (hover to see other rain measurements)
** Current wind speed in m/s (hover to see current wind gust speed)